Medford, OR

3:16 PM PDT on April 21, 2018 (GMT -0700)
Rogue Valley International-Medford

Weather History for KMFR - October, 2011

Change the Weather History Date:

Wednesday, October 26, 2011

  Actual Average Record
Temperature  
Mean Temperature 47 °F 52 °F  
Max Temperature 66 °F 64 °F 88 °F (2003)
Min Temperature 27 °F 40 °F 25 °F (1954)
Degree Days  
Heating Degree Days 18 13  
Month to date heating degree days 198 219  
Since 1 July heating degree days 211 288  
Cooling Degree Days 0 0  
Month to date cooling degree days 0 8  
Year to date cooling degree days 783 827  
Moisture  
Dew Point 27 °F    
Average Humidity 56    
Maximum Humidity 92    
Minimum Humidity 19    
Precipitation  
Precipitation 0.00 in 0.05 in 0.81 in (1950)
Month to date precipitation 0.64 0.83  
Year to date precipitation 13.48 11.54  
Snow  
Snow 0.00 in 0.00 in - ()
Month to date snowfall 0.0 0.0  
Since 1 July snowfall 0.0 0.0  
Snow Depth 0.00 in    
Sea Level Pressure  
Sea Level Pressure 30.29 in    
Wind  
Wind Speed 1 mph (SW)    
Max Wind Speed 8 mph    
Max Gust Speed 14 mph    
Visibility 10 miles    
Events      
T = Trace of Precipitation, MM = Missing Value Source: NWS Daily Summary

Daily Weather History Graph

Daily Weather History Graph

Search for Another Location

Airport or City:

Astronomy

Oct. 26, 2011 Rise Set
Actual Time 7:37 AM PDT 6:13 PM PDT
Civil Twilight 7:08 AM PDT 6:41 PM PDT
Nautical Twilight 6:35 AM PDT 7:14 PM PDT
Astronomical Twilight 6:02 AM PDT 7:47 PM PDT
Moon 7:33 AM PDT (10/26) 5:57 PM PDT (10/26)
Length of Visible Light 11h 33m
Length of Day
10h 35m
Waning Crescent, 0% of the Moon is Illuminated
Oct 26
Waning Crescent
Oct 26
New
Nov 2
First Quarter
Nov 10
Full
Nov 18
Last Quarter

Hourly Weather History & Observations

Time (PDT) Temp. Dew Point Humidity Pressure Visibility Wind Dir Wind Speed Gust Speed Precip Events Conditions
12:53 AM 37.9 °F 30.0 °F 73% 30.34 in 10.0 mi Calm Calm - N/A   Clear
1:53 AM 37.0 °F 30.0 °F 76% 30.34 in 10.0 mi Calm Calm - N/A   Clear
2:53 AM 36.0 °F 30.0 °F 79% 30.33 in 10.0 mi Calm Calm - N/A   Clear
3:53 AM 30.2 °F 26.6 °F 86% 30.31 in 10.0 mi Calm Calm - N/A   Clear
4:53 AM 30.9 °F 26.1 °F 82% 30.33 in 10.0 mi Calm Calm - N/A   Clear
5:53 AM 30.9 °F 28.0 °F 89% 30.34 in 10.0 mi Calm Calm - N/A   Clear
6:53 AM 28.0 °F 24.1 °F 85% 30.36 in 10.0 mi Calm Calm - N/A   Clear
7:53 AM 30.9 °F 27.0 °F 85% 30.36 in 10.0 mi Calm Calm - N/A   Clear
8:53 AM 34.0 °F 28.0 °F 79% 30.36 in 10.0 mi Calm Calm - N/A   Clear
9:53 AM 37.9 °F 28.9 °F 70% 30.37 in 10.0 mi Calm Calm - N/A   Clear
10:53 AM 44.1 °F 27.0 °F 51% 30.36 in 10.0 mi Calm Calm - N/A   Clear
11:53 AM 48.9 °F 28.0 °F 44% 30.34 in 10.0 mi Calm Calm - N/A   Clear
12:53 PM 54.0 °F 25.0 °F 33% 30.30 in 10.0 mi Calm Calm - N/A   Clear
1:53 PM 60.1 °F 21.9 °F 23% 30.26 in 10.0 mi Variable 3.5 mph - N/A   Clear
2:53 PM 62.1 °F 21.9 °F 21% 30.23 in 10.0 mi Calm Calm - N/A   Clear
3:53 PM 64.9 °F 23.0 °F 20% 30.22 in 10.0 mi NW 4.6 mph - N/A   Clear
4:53 PM 62.6 °F 19.4 °F 19% 30.20 in 10.0 mi Calm Calm - N/A   Clear
5:53 PM 61.0 °F 26.1 °F 26% 30.21 in 10.0 mi SW 4.6 mph - N/A   Clear
6:53 PM 55.9 °F 28.0 °F 34% 30.22 in 10.0 mi South 5.8 mph - N/A   Clear
7:53 PM 54.0 °F 32.0 °F 43% 30.22 in 10.0 mi SW 4.6 mph - N/A   Mostly Cloudy
8:53 PM 52.0 °F 30.0 °F 43% 30.22 in 10.0 mi SSW 4.6 mph - N/A   Clear
9:53 PM 48.0 °F 30.0 °F 50% 30.23 in 10.0 mi Calm Calm - N/A   Mostly Cloudy
10:53 PM 46.9 °F 30.9 °F 54% 30.24 in 10.0 mi SSW 3.5 mph - N/A   Clear
11:53 PM 46.4 °F 28.4 °F 50% 30.22 in 10.0 mi Calm Calm - N/A   Clear